Location: Dompnac
(44.5644°N, 4.1026°E)
Time: 14:59:50
(UTC+00:00)

Cosmos 1891 Rocket - Pass Details

Date: 24 January 2021
Orbit: 934 x 1018 km, 82.9° (Epoch: 05 March)

Event Time Altitude Azimuth Distance (km) Brightness Sun altitude
Rises 02:46:55 0° 130° (SE) 3,649 7.8 -46.4°
Reaches altitude 10° 02:50:56 10° 104° (ESE) 2,690 7.2 -45.7°
Maximum altitude 02:53:35 13° 78° (ENE) 2,460 7.1 -45.3°
Drops below altitude 10° 02:56:13 10° 52° (NE) 2,676 7.3 -44.8°
Sets 03:00:10 0° 27° (NNE) 3,615 7.9 -44.2°
